Content
SEND FEEDBACK

Daily
Averages
Monthly
Summary
Czech Republic

CESKE BUDEJOVICE, CZECH REPUBLIC


Home > Europe > Czech Republic
Elevation: 1391 feet     Latitude: 48 56N     Longitude: 014 27E

WEATHER
 
SELECT A DAY
Number of Records: 289,386;   Date Range: 7/1/96 - 4/21/13
 
SHARE

PRINT THIS DATA

[ ← Previous Day ]
WEATHER ALMANAC - JANUARY 14, 2013
[ Next Day → ]
[ °C ]   °F
Weather ElementAverageHighLow
Temperature26.9 °F29 °F (4:00 pm)23 °F (8:50 pm)
Dewpoint23.7 °F26 °F (7:00 am)21.2 °F (8:50 pm)
Humidity87.4 %93 % (4:50 am)72 % (4:00 pm)
Barometer29.92 in30.02 in (1:00 am)29.89 in (6:20 am)
Wind Speed4 mph9.2 mph (12:50 am)
Weather ElementAverage
Visibility5.5 mi
Wind DirectionESE (116.4 °)

Weather ElementTotal
Precipitation---
Heating Degree Days39 (Base 65)
Averaged from 52 records on January 14, 2013
WEATHER CONDITIONS BREAKOUT
WIND DIRECTION BREAKOUT
WEATHER BY HOUR - JANUARY 14, 2013
[ °C ]   °F
Local TimeTemperatureDewpointHumidityBarometerVisibilityWind DirectionWind SpeedGust SpeedPrecipitationEventsConditions
12:50 AM28.4 °F23.0 °F80 %29.95 in6.2 miESE (110°)9.2 mphOvercast
1:00 AM28.0 °F23.0 °F73 %30.02 in7.0 miESE (110°)8.9 mph
1:20 AM28.4 °F23.0 °F80 %29.95 in6.2 miEast (100°)6.9 mphOvercast
1:50 AM28.4 °F23.0 °F80 %29.95 in6.2 miEast (100°)8.1 mphOvercast
2:20 AM28.4 °F23.0 °F80 %29.95 in6.2 miEast (100°)8.1 mphOvercast
2:50 AM28.4 °F23.0 °F80 %29.95 in6.2 miEast (100°)9.2 mphOvercast
3:20 AM28.4 °F23.0 °F80 %29.95 in6.2 miEast (100°)8.1 mphOvercast
3:50 AM28.4 °F23.0 °F80 %29.95 in6.2 miEast (100°)6.9 mphOvercast
4:00 AM28.0 °F23.0 °F76 %30.01 in7.0 miEast (100°)6.7 mphOvercast
4:20 AM28.4 °F24.8 °F86 %29.92 in6.2 miEast (90°)4.6 mphSnowLight Snow
4:50 AM26.6 °F24.8 °F93 %29.92 in3.1 miEast (100°)5.8 mphSnowLight Snow
5:20 AM26.6 °F24.8 °F93 %29.92 inEast (100°)5.8 mphSnowLight Snow
5:50 AM26.6 °F24.8 °F93 %29.92 inEast (100°)5.8 mphSnowLight Snow
6:20 AM26.6 °F24.8 °F93 %29.89 inEast (100°)4.6 mphSnowLight Snow
6:50 AM26.6 °F24.8 °F93 %29.89 inESE (110°)4.6 mphSnowLight Snow
7:00 AM27.0 °F26.0 °F92 %29.97 in2.0 miESE (110°)4.5 mphSnowLight Snow
7:20 AM26.6 °F24.8 °F93 %29.89 inSE (130°)3.5 mphSnowLight Snow
7:50 AM26.6 °F24.8 °F93 %29.89 in1.6 miSE (130°)3.5 mphSnowLight Snow
8:50 AM26.6 °F24.8 °F93 %29.89 in1.6 miSE (130°)4.6 mphSnowLight Snow
9:20 AM26.6 °F24.8 °F93 %29.89 inESE (110°)4.6 mphSnowLight Snow
10:00 AM27.0 °F25.0 °F87 %29.96 in3.0 miEast (90°)4.5 mphSnowLight Snow
10:20 AM26.6 °F24.8 °F93 %29.89 in4.3 miEast (100°)3.5 mphSnowLight Snow
10:50 AM26.6 °F24.8 °F93 %29.89 in5.6 miVariable2.3 mphMostly Cloudy
11:20 AM28.4 °F24.8 °F86 %29.89 in3.7 miVariable1.2 mphSnowLight Snow
11:50 AM28.4 °F24.8 °F86 %29.89 in5.0 miESE (120°)3.5 mphSnowLight Snow
12:20 PM28.4 °F24.8 °F86 %29.89 in6.2 miVariable2.3 mphMostly Cloudy
12:50 PM28.4 °F24.8 °F86 %29.89 in6.2 miVariable2.3 mphMostly Cloudy
1:00 PM28.0 °F24.0 °F79 %29.96 in8.0 mi°2.2 mphSnowLight Snow
1:20 PM28.4 °F23.0 °F80 %29.89 in6.2 miVariable2.3 mphMostly Cloudy
1:50 PM28.4 °F24.8 °F86 %29.89 in6.2 miWest (280°)3.5 mphMostly Cloudy
2:20 PM28.4 °F24.8 °F86 %29.89 in6.2 miWNW (300°)2.3 mphMostly Cloudy
2:50 PM28.4 °F24.8 °F86 %29.89 in6.2 miVariable1.2 mphMostly Cloudy
3:20 PM28.4 °F23.0 °F80 %29.89 in6.2 miVariable2.3 mphMostly Cloudy
3:50 PM28.4 °F23.0 °F80 %29.89 in6.2 miVariable1.2 mphScattered Clouds
4:00 PM29.0 °F24.0 °F72 %29.96 in10.0 mi°2.2 mphScattered Clouds
4:20 PM26.6 °F23.0 °F86 %29.89 in6.2 miVariable2.3 mphScattered Clouds
4:50 PM24.8 °F23.0 °F93 %29.89 in6.2 miNW (310°)2.3 mphScattered Clouds
5:20 PM24.8 °F23.0 °F93 %29.92 in6.2 miVariable1.2 mphMostly Cloudy
5:50 PM24.8 °F23.0 °F93 %29.92 in6.2 miSE (140°)2.3 mphMostly Cloudy
6:20 PM24.8 °F23.0 °F93 %29.92 in6.2 miVariable1.2 mphMostly Cloudy
6:50 PM24.8 °F23.0 °F93 %29.92 in6.2 miNW (320°)3.5 mphMostly Cloudy
7:20 PM24.8 °F23.0 °F93 %29.92 in6.2 miVariable1.2 mphMostly Cloudy
7:50 PM24.8 °F23.0 °F93 %29.92 in5.6 miVariable1.2 mphMostly Cloudy
8:20 PM24.8 °F23.0 °F93 %29.92 in5.0 miVariable1.2 mphMostly Cloudy
8:50 PM23.0 °F21.2 °F93 %29.92 in4.3 miNW (310°)3.5 mphMostly Cloudy
9:20 PM24.8 °F23.0 °F93 %29.92 in5.0 miNW (320°)3.5 mphMostly Cloudy
9:50 PM24.8 °F23.0 °F93 %29.92 in5.0 miWNW (290°)4.6 mphMostly Cloudy
10:00 PM25.0 °F22.0 °F86 %29.99 in5.0 miWNW (290°)4.5 mphScattered Clouds
10:20 PM24.8 °F23.0 °F93 %29.92 in5.0 miWNW (300°)3.5 mphMostly Cloudy
10:50 PM26.6 °F23.0 °F86 %29.92 in5.0 miWNW (290°)4.6 mphMostly Cloudy
11:20 PM24.8 °F23.0 °F93 %29.92 in4.3 miVariable2.3 mphOvercast
11:50 PM26.6 °F23.0 °F86 %29.92 in4.3 miSW (230°)3.5 mphMostly Cloudy
Hourly data recorded from LOLF, located miles away from Ceske Budejovice, Czech Republic







STORIES FROM OUR PARTNERS